Location: ??
(34.9170°N, 135.5016°E)
Time: 14:46:44
(UTC+00:00)

S-56A Canister/Altair - Pass Details

Date: 15 March 2021
Orbit: 632 x 2500 km, 38.9° (Epoch: 16 April)

Event Time Altitude Azimuth Distance (km) Brightness Sun altitude
Rises 09:50:40 0° 283° (WNW) 6,155 14.3 -10.1°
Reaches altitude 10° 09:56:59 10° 265° (W) 5,156 13.2 -11.4°
Maximum altitude 10:04:43 16° 234° (SW) 4,491 12.1 -13.0°
Drops below altitude 10° 10:11:56 10° 201° (SSW) 4,716 11.7 -14.4°
Sets 10:17:22 0° 182° (S) 5,400 11.8 -15.5°
